Flag for U.S.A. Weather past 2 weeks in Livonia, Michigan, U.S.A.

Now
34 °F

Partly sunny.


Feels Like: 28 °F
Forecast: 25 / 36 °F
Wind: 7 mph from Southeast

Location: Detroit Metropolitan Wayne County Airport

Current Time: Dec 21, 2014 at 1:17:53 PM

Latest Report: Dec 21, 2014 at 12:53 PM


Visibility: 9 mi

Pressure: 30.29 "Hg

Humidity: 64%

Dew point: 23 °F

Location of LivoniaLocation

Historic Weather in Livonia — Graph

°F

Livonia temperature yesterday

Maximum temperature yesterday: 30 °F (at 11:53 AM)
Minimum temperature yesterday: 24 °F (at 12:53 AM)
Average temperature yesterday: 28 °F

Past Weeks' High & Low Weather Summary

 TemperatureHumidityPressure
High52 °F (Dec 14, 2:53 PM)100% (Dec 16, 4:00 AM)30.72 "Hg (Dec 16, 4:00 AM)
Low21 °F (Dec 11, 3:53 AM)32% (Dec 11, 2:53 PM)29.68 "Hg (Dec 16, 9:01 AM)
Average35 °F77%30.19 "Hg
* Reported Dec 6 11:53 AM — Dec 21 11:53 AM, Livonia, Weather by CustomWeather, © 2014

Note: Actual official high and low records may vary slightly from our data, if they occured in-between our weather recording intervals... More about our weather records

Advertising

Livonia weather history for previous 24 hours

 ConditionsComfort  
Time TempWeatherWind HumidityBarometerVisibility
11:53 AM
Dec 21
34 °FPartly sunny.9 mph64%30.33 "Hg8 mi
10:53 AM33 °FPartly sunny.8 mph66%30.34 "Hg8 mi
9:53 AM29 °FIce fog.No wind85%30.34 "Hg5 mi
8:53 AM28 °FIce fog.No wind85%30.33 "Hg5 mi
7:53 AM28 °FPassing clouds.No wind81%30.34 "Hg5 mi
6:53 AM28 °FOvercast.No wind81%30.34 "Hg6 mi
5:53 AM28 °FIce fog.No wind85%30.33 "Hg6 mi
4:53 AM28 °FMostly cloudy.No wind81%30.32 "Hg6 mi
3:53 AM28 °FOvercast.No wind85%30.33 "Hg7 mi
2:53 AM29 °FOvercast.No wind79%30.32 "Hg7 mi
1:53 AM30 °FOvercast.No wind75%30.31 "Hg7 mi
12:53 AM30 °FOvercast.No wind79%30.31 "Hg8 mi
11:53 PM
Dec 20
30 °FOvercast.No wind75%30.31 "Hg8 mi
10:53 PM29 °FOvercast.No wind79%30.31 "Hg8 mi
9:53 PM30 °FOvercast.No wind75%30.32 "Hg8 mi
8:53 PM30 °FOvercast.3 mph75%30.32 "Hg8 mi
7:53 PM30 °FOvercast.3 mph75%30.33 "Hg9 mi
6:53 PM30 °FOvercast.No wind69%30.32 "Hg10 mi
5:53 PM30 °FOvercast.No wind72%30.31 "Hg10 mi
4:53 PM30 °FOvercast.No wind72%30.30 "Hg10 mi
3:53 PM30 °FOvercast.3 mph72%30.30 "Hg10 mi
2:53 PM30 °FOvercast.No wind72%30.29 "Hg10 mi
1:53 PM30 °FOvercast.No wind69%30.30 "Hg10 mi
Weather by CustomWeather, © 2014

See weather overviewHow to use our weather pages